Home   Weather   Chicago   Past weeks
Flag for USA

Past Weather in Chicago, Illinois, USA — Yesterday and Last 2 Weeks

Now
49 °F

Mostly cloudy.


Feels Like: 44 °F
Forecast: 49 / 46 °F
Wind: 12 mph from East

Location: Chicago Midway Airport

Current Time: May 21, 2019 at 12:00:24 pm

Latest Report: May 21, 2019 at 10:53 am


Visibility: 10 mi

Pressure: 30.13 "Hg

Humidity: 86%

Dew Point: 45 °F

Location of ChicagoLocation

Past Weather in Chicago — Graph

°F

Chicago Temperature Yesterday

Maximum temperature yesterday: 57 °F (at 12:19 am)
Minimum temperature yesterday: 48 °F (at 8:53 pm)
Average temperature yesterday: 51 °F

High & Low Weather Summary for the Past Weeks

 TemperatureHumidityPressure
High83 °F (May 18, 12:53 pm)100% (May 9, 3:53 am)30.26 "Hg (May 9, 3:53 am)
Low43 °F (May 12, 8:53 pm)26% (May 14, 3:53 pm)29.57 "Hg (May 19, 12:53 pm)
Average56 °F71%29.92 "Hg
* Reported May 6 10:53 am — May 21 10:53 am, Chicago. Weather by CustomWeather, © 2019

Note: Actual official high and low records may vary slightly from our data, if they occured in-between our weather recording intervals... More about our weather records

Advertising

Chicago Weather History for the Previous 24 Hours

Scroll right to see more
 ConditionsComfort  
Time TempWeatherWind HumidityBarometerVisibility
10:53 am
Tue, May 21
49 °FMostly cloudy.12 mph86%30.13 "Hg10 mi
9:53 am49 °FLight rain. Overcast.9 mph86%30.12 "Hg10 mi
8:53 am49 °FMore clouds than sun.13 mph84%30.12 "Hg10 mi
7:53 am48 °FLight rain. Cloudy.15 mph89%30.12 "Hg10 mi
6:53 am47 °FLight rain. Overcast.10 mph93%30.14 "Hg9 mi
5:53 am46 °FLight rain. Overcast.12 mph86%30.11 "Hg10 mi
4:53 am46 °FLight rain. Mostly cloudy.9 mph83%30.12 "Hg10 mi
3:53 am48 °FMostly cloudy.9 mph66%30.13 "Hg10 mi
2:53 am49 °FOvercast.15 mph64%30.09 "Hg10 mi
1:53 am49 °FOvercast.5 mph61%30.16 "Hg10 mi
12:53 am50 °FMostly cloudy.10 mph57%30.14 "Hg10 mi
11:53 pm
Mon, May 20
49 °FOvercast.6 mph59%30.16 "Hg10 mi
10:53 pm48 °FHigh level clouds.3 mph63%30.19 "Hg10 mi
9:53 pm49 °FHigh level clouds.No wind57%30.18 "Hg10 mi
8:53 pm48 °FOvercast.9 mph61%30.14 "Hg10 mi
7:53 pm49 °FOvercast.12 mph64%30.13 "Hg10 mi
6:53 pm52 °FOvercast.13 mph57%30.15 "Hg10 mi
5:53 pm52 °FPartly sunny.8 mph61%30.17 "Hg10 mi
4:53 pm55 °FPartly sunny.10 mph59%30.14 "Hg10 mi
3:53 pm54 °FPartly sunny.9 mph62%30.11 "Hg10 mi
2:53 pm52 °FOvercast.9 mph61%30.12 "Hg10 mi
1:53 pm53 °FOvercast.5 mph59%30.11 "Hg10 mi
12:53 pm51 °FOvercast.3 mph63%30.11 "Hg10 mi
Weather by CustomWeather, © 2019

See weather overview